| time (UTC) | temp F | wind direction | speed knots | gust knots | rain 1hr in | rain 24hr in | rain mn in | humidity % | barometer mb |
| 20260902024519 | 56 | 187 | 0.0 | 2.6 | 0.00 | 0.00 | 0.00 | 67 | 1020.0 |
| 20260902023020 | 56 | 224 | 0.0 | 3.5 | 0.00 | 0.00 | 0.00 | 66 | 1020.3 |
| 20260902021518 | 56 | 226 | 0.0 | 3.5 | 0.00 | 0.00 | 0.00 | 66 | 1020.4 |
| 20260902020019 | 56 | 217 | 0.9 | 3.5 | 0.00 | 0.00 | 0.00 | 65 | 1020.4 |
| 20260902014527 | 56 | 223 | 0.9 | 4.3 | 0.00 | 0.00 | 0.00 | 65 | 1020.3 |
| 20260902013014 | 56 | 242 | 0.0 | 1.7 | 0.00 | 0.00 | 0.00 | 64 | 1020.4 |
| 20260902011521 | 57 | 253 | 0.0 | 3.5 | 0.00 | 0.00 | 0.00 | 64 | 1020.3 |
| 20260902010010 | 57 | 236 | 0.0 | 3.5 | 0.00 | 0.00 | 0.00 | 64 | 1020.3 |
| 20260902004509 | 57 | 217 | 0.0 | 2.6 | 0.00 | 0.06 | 0.00 | 63 | 1020.4 |
| 20260902003010 | 57 | 240 | 0.9 | 2.6 | 0.00 | 0.06 | 0.00 | 63 | 1020.4 |
| 20260902001506 | 57 | 235 | 0.0 | 3.5 | 0.00 | 0.06 | 0.00 | 63 | 1020.5 |
| 20260902000006 | 57 | 225 | 0.9 | 3.5 | 0.00 | 0.06 | 0.00 | 63 | 1020.6 |
| 20260901234513 | 57 | 214 | 0.9 | 2.6 | 0.00 | 0.06 | 0.00 | 62 | 1020.6 |
| 20260901233003 | 57 | 232 | 0.9 | 3.5 | 0.00 | 0.06 | 0.00 | 62 | 1020.7 |
| 20260901231501 | 57 | 218 | 0.0 | 2.6 | 0.00 | 0.06 | 0.00 | 62 | 1020.8 |
| 20260901230002 | 57 | 207 | 0.0 | 1.7 | 0.00 | 0.06 | 0.00 | 62 | 1021.0 |
| 20260901224600 | 57 | 201 | 0.0 | 1.7 | 0.00 | 0.06 | 0.00 | 62 | 1021.0 |
| 20260901223113 | 57 | 220 | 0.9 | 2.6 | 0.00 | 0.06 | 0.00 | 62 | 1020.9 |
| 20260901221558 | 57 | 169 | 0.0 | 1.7 | 0.00 | 0.06 | 0.00 | 62 | 1020.9 |
| 20260901220101 | 58 | 200 | 0.0 | 1.7 | 0.00 | 0.06 | 0.00 | 61 | 1021.0 |
| 20260901214553 | 58 | 228 | 0.9 | 3.5 | 0.00 | 0.06 | 0.06 | 61 | 1021.2 |
| 20260901213053 | 58 | 243 | 0.9 | 2.6 | 0.00 | 0.06 | 0.06 | 61 | 1021.1 |
| 20260901211555 | 59 | 226 | 0.0 | 2.6 | 0.00 | 0.06 | 0.06 | 60 | 1021.0 |
| 20260901210058 | 59 | 238 | 0.0 | 3.5 | 0.00 | 0.06 | 0.06 | 59 | 1021.0 |
| 20260901204549 | 59 | 221 | 0.9 | 2.6 | 0.00 | 0.06 | 0.06 | 59 | 1021.0 |
| 20260901203051 | 59 | 219 | 0.0 | 2.6 | 0.00 | 0.06 | 0.06 | 59 | 1021.1 |
| 20260901201546 | 60 | 243 | 0.0 | 2.6 | 0.00 | 0.06 | 0.06 | 59 | 1021.4 |
| 20260901200054 | 60 | 240 | 0.0 | 1.7 | 0.00 | 0.06 | 0.06 | 60 | 1021.4 |
| 20260901194600 | 61 | 212 | 0.0 | 1.7 | 0.00 | 0.06 | 0.06 | 58 | 1021.3 |
| 20260901193040 | 61 | 229 | 0.0 | 1.7 | 0.00 | 0.06 | 0.06 | 58 | 1021.3 |
| 20260901191543 | 62 | 221 | 0.0 | 2.6 | 0.00 | 0.06 | 0.06 | 57 | 1021.2 |
| 20260901190054 | 63 | 247 | 0.0 | 2.6 | 0.00 | 0.06 | 0.06 | 56 | 1021.1 |
| 20260901184539 | 63 | 243 | 0.9 | 2.6 | 0.00 | 0.06 | 0.06 | 55 | 1020.9 |
| 20260901183043 | 64 | 236 | 0.0 | 2.6 | 0.00 | 0.06 | 0.06 | 54 | 1020.9 |
| 20260901181546 | 65 | 208 | 0.0 | 4.3 | 0.00 | 0.06 | 0.06 | 52 | 1020.9 |
| 20260901180037 | 65 | 250 | 0.9 | 6.1 | 0.00 | 0.06 | 0.06 | 51 | 1020.9 |
| 20260901174518 | 66 | 249 | 0.9 | 4.3 | 0.00 | 0.06 | 0.06 | 50 | 1020.9 |
| 20260901173017 | 67 | 266 | 2.6 | 7.0 | 0.00 | 0.06 | 0.06 | 50 | 1021.0 |
| 20260901171517 | 68 | 269 | 1.7 | 5.2 | 0.00 | 0.06 | 0.06 | 50 | 1021.1 |
| 20260901170016 | 69 | 268 | 1.7 | 7.8 | 0.00 | 0.06 | 0.06 | 50 | 1021.2 |
| 20260901164515 | 69 | 264 | 1.7 | 8.7 | 0.00 | 0.06 | 0.06 | 49 | 1021.1 |
| 20260901163014 | 69 | 271 | 2.6 | 7.8 | 0.00 | 0.06 | 0.06 | 47 | 1021.2 |
| 20260901161512 | 69 | 292 | 0.9 | 6.1 | 0.00 | 0.06 | 0.06 | 51 | 1021.3 |
| 20260901160011 | 69 | 323 | 1.7 | 4.3 | 0.00 | 0.06 | 0.06 | 52 | 1021.2 |
| 20260901154511 | 69 | 283 | 1.7 | 4.3 | 0.00 | 0.06 | 0.06 | 52 | 1021.2 |
| 20260901153018 | 69 | 296 | 0.9 | 7.0 | 0.00 | 0.06 | 0.06 | 53 | 1021.2 |
| 20260901151508 | 68 | 243 | 0.9 | 7.8 | 0.00 | 0.06 | 0.06 | 53 | 1021.1 |
| 20260901150007 | 68 | 307 | 3.5 | 10.4 | 0.00 | 0.06 | 0.06 | 53 | 1021.1 |
| 20260901144508 | 69 | 307 | 1.7 | 7.0 | 0.00 | 0.06 | 0.06 | 53 | 1021.0 |
| 20260901143006 | 69 | 244 | 1.7 | 7.0 | 0.00 | 0.06 | 0.06 | 53 | 1021.2 |
| 20260901141507 | 68 | 262 | 2.6 | 7.8 | 0.00 | 0.06 | 0.06 | 53 | 1021.3 |
| 20260901140005 | 69 | 282 | 0.9 | 5.2 | 0.00 | 0.06 | 0.06 | 53 | 1021.3 |
| 20260901134503 | 69 | 321 | 1.7 | 6.1 | 0.00 | 0.06 | 0.06 | 53 | 1021.3 |
| 20260901133006 | 69 | 246 | 1.7 | 6.1 | 0.00 | 0.06 | 0.06 | 53 | 1021.2 |
| 20260901131506 | 68 | 303 | 1.7 | 9.6 | 0.00 | 0.06 | 0.06 | 53 | 1021.3 |
| 20260901130002 | 68 | 227 | 2.6 | 7.0 | 0.00 | 0.06 | 0.06 | 53 | 1021.4 |
| 20260901124602 | 69 | 256 | 1.7 | 7.8 | 0.00 | 0.06 | 0.06 | 53 | 1021.4 |
| 20260901123100 | 69 | 205 | 1.7 | 7.0 | 0.00 | 0.06 | 0.06 | 53 | 1021.4 |
| 20260901121611 | 68 | 46 | 1.7 | 8.7 | 0.00 | 0.06 | 0.06 | 53 | 1021.4 |
| 20260901120106 | 68 | 268 | 2.6 | 7.0 | 0.00 | 0.06 | 0.06 | 53 | 1021.4 |
| 20260901114602 | 68 | 352 | 0.9 | 6.1 | 0.00 | 0.06 | 0.06 | 53 | 1021.4 |
| 20260901113056 | 68 | 336 | 1.7 | 7.0 | 0.00 | 0.06 | 0.06 | 53 | 1021.5 |
| 20260901111559 | 68 | 272 | 1.7 | 6.1 | 0.00 | 0.06 | 0.06 | 53 | 1021.5 |
| 20260901110053 | 67 | 260 | 1.7 | 6.1 | 0.00 | 0.06 | 0.06 | 54 | 1021.5 |
| 20260901104552 | 68 | 293 | 2.6 | 7.8 | 0.00 | 0.06 | 0.06 | 53 | 1021.5 |
| 20260901103101 | 68 | 274 | 1.7 | 6.1 | 0.00 | 0.06 | 0.06 | 53 | 1021.4 |
| 20260901101553 | 67 | 360 | 2.6 | 6.1 | 0.00 | 0.06 | 0.06 | 53 | 1021.3 |
| 20260901100049 | 67 | 20 | 1.7 | 5.2 | 0.00 | 0.06 | 0.06 | 54 | 1021.4 |
| 20260901094547 | 67 | 252 | 0.9 | 5.2 | 0.00 | 0.08 | 0.06 | 55 | 1021.3 |
| 20260901093114 | 67 | 4 | 0.9 | 6.1 | 0.00 | 0.08 | 0.06 | 54 | 1021.2 |
| 20260901091559 | 66 | 328 | 1.7 | 5.2 | 0.00 | 0.08 | 0.06 | 56 | 1021.1 |
| 20260901090044 | 67 | 297 | 2.6 | 6.1 | 0.00 | 0.08 | 0.06 | 55 | 1021.1 |
| 20260901084543 | 67 | 3 | 2.6 | 6.1 | 0.00 | 0.08 | 0.06 | 54 | 1020.9 |
| 20260901083046 | 67 | 210 | 0.9 | 5.2 | 0.00 | 0.08 | 0.06 | 54 | 1020.8 |
| 20260901081538 | 66 | 242 | 0.9 | 6.1 | 0.00 | 0.08 | 0.06 | 55 | 1020.6 |
| 20260901080043 | 66 | 293 | 0.9 | 5.2 | 0.00 | 0.08 | 0.06 | 56 | 1020.4 |
| 20260901074535 | 66 | 295 | 0.9 | 3.5 | 0.00 | 0.08 | 0.06 | 56 | 1020.3 |
| 20260901073032 | 66 | 343 | 0.0 | 4.3 | 0.00 | 0.08 | 0.06 | 58 | 1020.1 |
| 20260901071532 | 65 | 23 | 0.9 | 6.1 | 0.00 | 0.08 | 0.06 | 59 | 1019.9 |
| 20260901070033 | 64 | 319 | 0.0 | 5.2 | 0.00 | 0.08 | 0.06 | 59 | 1019.9 |
| 20260901064530 | 64 | 259 | 0.0 | 2.6 | 0.00 | 0.08 | 0.06 | 60 | 1019.9 |
| 20260901063023 | 64 | 349 | 1.7 | 4.3 | 0.00 | 0.08 | 0.06 | 60 | 1019.8 |
| 20260901061523 | 63 | 302 | 0.9 | 3.5 | 0.00 | 0.08 | 0.06 | 61 | 1019.6 |
| 20260901060021 | 63 | 306 | 0.9 | 4.3 | 0.00 | 0.08 | 0.06 | 60 | 1019.4 |
| 20260901054520 | 63 | 309 | 0.0 | 2.6 | 0.00 | 0.21 | 0.06 | 60 | 1019.4 |
| 20260901053022 | 63 | 301 | 0.9 | 3.5 | 0.00 | 0.21 | 0.06 | 60 | 1019.3 |
| 20260901051517 | 63 | 305 | 0.9 | 3.5 | 0.00 | 0.21 | 0.06 | 60 | 1019.1 |
| 20260901050016 | 63 | 304 | 0.9 | 3.5 | 0.00 | 0.21 | 0.06 | 60 | 1019.0 |
| 20260901044514 | 63 | 323 | 0.0 | 2.6 | 0.00 | 0.31 | 0.06 | 61 | 1018.9 |
| 20260901043013 | 64 | 356 | 0.9 | 4.3 | 0.00 | 0.31 | 0.06 | 60 | 1018.8 |
| 20260901041512 | 64 | 325 | 0.0 | 3.5 | 0.00 | 0.31 | 0.06 | 60 | 1018.7 |
| 20260901040011 | 64 | 307 | 1.7 | 5.2 | 0.00 | 0.31 | 0.06 | 60 | 1018.6 |
| 20260901034512 | 64 | 291 | 0.9 | 5.2 | 0.00 | 0.36 | 0.06 | 61 | 1018.5 |
| 20260901033011 | 64 | 278 | 1.7 | 5.2 | 0.00 | 0.36 | 0.06 | 61 | 1018.2 |
| 20260901031511 | 64 | 329 | 1.7 | 7.8 | 0.00 | 0.36 | 0.06 | 61 | 1018.3 |
| 20260901030013 | 64 | 335 | 0.9 | 4.3 | 0.00 | 0.36 | 0.06 | 61 | 1018.2 |